Time,TemperatureF,DewpointF,PressureIn,WindDirection,WindDirectionDegrees,WindSpeedMPH,WindSpeedGustMPH,Humidity,HourlyPrecipIn,Conditions,Clouds,dailyrainin,SolarRadiationWatts/m^2,SoftwareType,DateUTC
2013-03-06 00:05:00,41.7,39.3,29.62,West,268,0.0,5.0,91,0.00,RA,SCT,0.00,0.0,WeatherDisplay:10.37,2013-03-06 05:05:00,
2013-03-06 00:10:00,41.7,39.3,29.62,West,268,0.0,3.0,91,0.01,RA,SCT,0.01,0.0,WeatherDisplay:10.37,2013-03-06 05:10:00,
2013-03-06 00:15:00,41.7,39.3,29.62,West,268,0.0,1.0,91,0.00,RA,SCT,0.01,0.0,WeatherDisplay:10.37,2013-03-06 05:15:00,
2013-03-06 00:20:00,41.7,39.3,29.62,West,268,0.0,1.0,91,0.00,,SCT,0.01,0.0,WeatherDisplay:10.37,2013-03-06 05:20:00,
2013-03-06 00:25:00,41.7,39.3,29.62,West,268,0.0,5.0,91,0.00,,SCT,0.01,0.0,WeatherDisplay:10.37,2013-03-06 05:25:00,
2013-03-06 00:30:00,41.7,39.3,29.62,West,268,0.0,1.0,91,0.00,,SCT,0.01,0.0,WeatherDisplay:10.37,2013-03-06 05:30:00,
2013-03-06 00:40:00,41.7,39.3,29.62,West,268,0.0,5.0,91,0.00,,SCT,0.01,0.0,WeatherDisplay:10.37,2013-03-06 05:40:00,
2013-03-06 00:45:00,41.8,39.4,29.62,West,268,1.0,4.0,91,0.00,,SCT,0.01,0.0,WeatherDisplay:10.37,2013-03-06 05:45:00,
2013-03-06 00:50:00,41.8,39.4,29.62,West,280,2.0,7.0,91,0.00,,SCT,0.01,0.0,WeatherDisplay:10.37,2013-03-06 05:50:00,
2013-03-06 00:55:00,41.7,39.3,29.63,WNW,285,2.0,6.0,91,0.00,,SCT,0.01,0.0,WeatherDisplay:10.37,2013-03-06 05:55:00,
2013-03-06 01:00:00,41.5,39.1,29.63,WNW,293,6.0,18.0,91,0.00,,SCT,0.01,0.0,WeatherDisplay:10.37,2013-03-06 06:00:00,
2013-03-06 01:05:00,41.2,38.8,29.63,WNW,292,8.0,15.0,91,0.00,,SCT,0.01,0.0,WeatherDisplay:10.37,2013-03-06 06:05:00,
2013-03-06 01:10:00,40.7,38.0,29.63,WNW,290,9.0,24.0,90,0.00,,SCT,0.01,0.0,WeatherDisplay:10.37,2013-03-06 06:10:00,
2013-03-06 01:15:00,40.5,37.5,29.63,WNW,291,3.0,18.0,89,0.00,,SCT,0.01,0.0,WeatherDisplay:10.37,2013-03-06 06:15:00,
2013-03-06 01:20:00,40.3,36.7,29.64,WNW,289,7.0,20.0,87,0.00,,SCT,0.01,0.0,WeatherDisplay:10.37,2013-03-06 06:20:00,
2013-03-06 01:25:00,40.1,35.7,29.64,WNW,290,6.0,20.0,84,0.00,,SCT,0.01,0.0,WeatherDisplay:10.37,2013-03-06 06:25:00,
2013-03-06 01:35:00,40.0,34.6,29.64,West,279,6.0,13.0,81,0.00,,SCT,0.01,0.0,WeatherDisplay:10.37,2013-03-06 06:35:00,
2013-03-06 01:40:00,39.9,33.9,29.65,WNW,283,7.0,12.0,79,0.00,,SCT,0.01,0.0,WeatherDisplay:10.37,2013-03-06 06:40:00,
2013-03-06 01:45:00,39.8,33.5,29.65,WNW,282,9.0,16.0,78,0.00,,SCT,0.01,0.0,WeatherDisplay:10.37,2013-03-06 06:45:00,
2013-03-06 01:50:00,39.8,32.8,29.65,WNW,288,7.0,24.0,76,0.00,,SCT,0.01,0.0,WeatherDisplay:10.37,2013-03-06 06:50:00,
2013-03-06 02:00:00,39.7,31.8,29.66,WNW,288,7.0,20.0,73,0.00,,SCT,0.01,0.0,WeatherDisplay:10.37,2013-03-06 07:00:00,
2013-03-06 02:05:00,39.6,31.3,29.66,WNW,289,10.0,16.0,72,0.00,,SCT,0.01,0.0,WeatherDisplay:10.37,2013-03-06 07:05:00,
2013-03-06 02:10:00,39.5,30.9,29.66,WNW,286,9.0,16.0,71,0.00,,SCT,0.01,0.0,WeatherDisplay:10.37,2013-03-06 07:10:00,
2013-03-06 02:15:00,39.4,30.4,29.66,WNW,292,8.0,17.0,70,0.00,,SCT,0.01,0.0,WeatherDisplay:10.37,2013-03-06 07:15:00,
2013-03-06 02:20:00,39.3,30.3,29.66,WNW,288,10.0,16.0,70,0.00,,SCT,0.01,0.0,WeatherDisplay:10.37,2013-03-06 07:20:00,
2013-03-06 02:25:00,39.3,29.6,29.66,WNW,292,5.0,17.0,68,0.00,,SCT,0.01,0.0,WeatherDisplay:10.37,2013-03-06 07:25:00,
2013-03-06 02:30:00,39.2,29.2,29.66,WNW,299,7.0,18.0,67,0.00,,SCT,0.01,0.0,WeatherDisplay:10.37,2013-03-06 07:30:00,
2013-03-06 02:35:00,39.1,29.0,29.66,NW,307,8.0,20.0,67,0.00,,SCT,0.01,0.0,WeatherDisplay:10.37,2013-03-06 07:35:00,
2013-03-06 02:40:00,39.0,28.6,29.66,NW,306,7.0,18.0,66,0.00,,SCT,0.01,0.0,WeatherDisplay:10.37,2013-03-06 07:40:00,
2013-03-06 02:45:00,38.9,28.5,29.66,WNW,297,5.0,16.0,66,0.00,,SCT,0.01,0.0,WeatherDisplay:10.37,2013-03-06 07:45:00,
2013-03-06 02:50:00,38.8,28.4,29.66,WNW,294,7.0,16.0,66,0.00,,SCT,0.01,0.0,WeatherDisplay:10.37,2013-03-06 07:50:00,
2013-03-06 02:55:00,38.6,28.2,29.66,WNW,295,6.0,13.0,66,0.00,,SCT,0.01,0.0,WeatherDisplay:10.37,2013-03-06 07:55:00,
2013-03-06 03:00:00,38.5,28.1,29.66,WNW,300,7.0,12.0,66,0.00,,SCT,0.01,0.0,WeatherDisplay:10.37,2013-03-06 08:00:00,
2013-03-06 03:05:00,38.4,28.0,29.65,WNW,298,5.0,12.0,66,0.00,,SCT,0.01,0.0,WeatherDisplay:10.37,2013-03-06 08:05:00,
2013-03-06 03:10:00,38.2,27.8,29.65,WNW,293,5.0,12.0,66,0.00,,SCT,0.01,0.0,WeatherDisplay:10.37,2013-03-06 08:10:00,
2013-03-06 03:15:00,38.0,28.0,29.65,WNW,293,6.0,8.0,67,0.00,,SCT,0.01,0.0,WeatherDisplay:10.37,2013-03-06 08:15:00,
2013-03-06 03:20:00,37.9,27.9,29.65,WNW,287,6.0,12.0,67,0.00,,SCT,0.01,0.0,WeatherDisplay:10.37,2013-03-06 08:20:00,
2013-03-06 03:25:00,37.7,28.1,29.66,WNW,283,5.0,12.0,68,0.00,,SCT,0.01,0.0,WeatherDisplay:10.37,2013-03-06 08:25:00,
2013-03-06 03:30:00,37.6,27.9,29.66,West,276,6.0,13.0,68,0.00,,SCT,0.01,0.0,WeatherDisplay:10.37,2013-03-06 08:30:00,
2013-03-06 03:35:00,37.4,28.2,29.66,West,278,3.0,8.0,69,0.00,,SCT,0.01,0.0,WeatherDisplay:10.37,2013-03-06 08:35:00,
2013-03-06 03:40:00,37.2,28.3,29.66,WNW,292,5.0,10.0,70,0.00,,SCT,0.01,0.0,WeatherDisplay:10.37,2013-03-06 08:40:00,
2013-03-06 03:45:00,37.1,28.2,29.66,NW,304,2.0,10.0,70,0.00,,SCT,0.01,0.0,WeatherDisplay:10.37,2013-03-06 08:45:00,
2013-03-06 03:50:00,37.0,28.1,29.67,WNW,303,5.0,13.0,70,0.00,,SCT,0.01,0.0,WeatherDisplay:10.37,2013-03-06 08:50:00,
2013-03-06 03:55:00,37.0,27.8,29.67,WNW,286,5.0,14.0,69,0.00,,SCT,0.01,0.0,WeatherDisplay:10.37,2013-03-06 08:55:00,
2013-03-06 04:00:00,36.9,27.7,29.67,WNW,287,6.0,10.0,69,0.00,,SCT,0.01,0.0,WeatherDisplay:10.37,2013-03-06 09:00:00,
2013-03-06 04:05:00,36.9,27.3,29.67,WNW,291,7.0,10.0,68,0.00,,SCT,0.01,0.0,WeatherDisplay:10.37,2013-03-06 09:05:00,
2013-03-06 04:10:00,36.8,26.9,29.67,WNW,284,7.0,18.0,67,0.00,,SCT,0.01,0.0,WeatherDisplay:10.37,2013-03-06 09:10:00,
2013-03-06 04:20:00,36.7,26.8,29.67,West,278,7.0,14.0,67,0.00,,SCT,0.01,0.0,WeatherDisplay:10.37,2013-03-06 09:20:00,
2013-03-06 04:25:00,36.6,26.3,29.68,WNW,284,6.0,12.0,66,0.00,,SCT,0.01,0.0,WeatherDisplay:10.37,2013-03-06 09:25:00,
2013-03-06 04:30:00,36.5,25.8,29.69,WNW,294,6.0,16.0,65,0.00,,SCT,0.01,0.0,WeatherDisplay:10.37,2013-03-06 09:30:00,
2013-03-06 04:35:00,36.5,26.6,29.68,WNW,294,3.0,12.0,67,0.00,,SCT,0.01,0.0,WeatherDisplay:10.37,2013-03-06 09:35:00,
2013-03-06 04:40:00,36.3,26.0,29.68,WNW,283,8.0,24.0,66,0.00,,SCT,0.01,0.0,WeatherDisplay:10.37,2013-03-06 09:40:00,
2013-03-06 04:45:00,36.1,25.8,29.68,WNW,282,7.0,15.0,66,0.00,,SCT,0.01,0.0,WeatherDisplay:10.37,2013-03-06 09:45:00,
2013-03-06 04:50:00,35.9,25.3,29.68,West,277,5.0,13.0,65,0.00,,SCT,0.01,0.0,WeatherDisplay:10.37,2013-03-06 09:50:00,
2013-03-06 04:55:00,35.7,25.1,29.69,West,280,5.0,15.0,65,0.00,,SCT,0.01,0.0,WeatherDisplay:10.37,2013-03-06 09:55:00,
2013-03-06 05:00:00,35.5,24.9,29.69,West,277,6.0,13.0,65,0.00,,SCT,0.01,0.0,WeatherDisplay:10.37,2013-03-06 10:00:00,
2013-03-06 05:05:00,35.4,25.2,29.69,WNW,286,2.0,8.0,66,0.00,,SCT,0.01,0.0,WeatherDisplay:10.37,2013-03-06 10:05:00,
2013-03-06 05:10:00,35.2,25.0,29.69,WNW,296,2.0,8.0,66,0.00,,SCT,0.01,0.0,WeatherDisplay:10.37,2013-03-06 10:10:00,
2013-03-06 05:15:00,35.1,24.9,29.69,West,279,2.0,8.0,66,0.00,,SCT,0.01,0.0,WeatherDisplay:10.37,2013-03-06 10:15:00,
2013-03-06 05:20:00,35.0,24.7,29.69,West,278,3.0,10.0,66,0.00,,SCT,0.01,0.0,WeatherDisplay:10.37,2013-03-06 10:20:00,
2013-03-06 05:25:00,34.8,24.6,29.69,WNW,282,5.0,8.0,66,0.00,,SCT,0.01,0.0,WeatherDisplay:10.37,2013-03-06 10:25:00,
2013-03-06 05:30:00,34.7,24.8,29.69,West,277,5.0,10.0,67,0.00,,SCT,0.01,0.0,WeatherDisplay:10.37,2013-03-06 10:30:00,
2013-03-06 05:35:00,34.5,24.7,29.69,West,270,2.0,12.0,67,0.00,,SCT,0.01,0.0,WeatherDisplay:10.37,2013-03-06 10:35:00,
2013-03-06 05:40:00,34.4,24.2,29.69,West,279,2.0,12.0,66,0.00,,SCT,0.01,0.0,WeatherDisplay:10.37,2013-03-06 10:40:00,
2013-03-06 05:45:00,34.4,24.2,29.70,WNW,292,3.0,5.0,66,0.00,,SCT,0.01,0.0,WeatherDisplay:10.37,2013-03-06 10:45:00,
2013-03-06 05:50:00,34.4,24.2,29.70,West,279,2.0,7.0,66,0.00,,SCT,0.01,0.0,WeatherDisplay:10.37,2013-03-06 10:50:00,
2013-03-06 05:55:00,34.4,24.2,29.70,West,264,3.0,9.0,66,0.00,,SCT,0.01,0.0,WeatherDisplay:10.37,2013-03-06 10:55:00,
2013-03-06 06:00:00,34.4,24.6,29.70,West,259,2.0,7.0,67,0.00,,SCT,0.01,0.0,WeatherDisplay:10.37,2013-03-06 11:00:00,
2013-03-06 06:05:00,34.4,24.2,29.71,West,259,3.0,8.0,66,0.00,,SCT,0.01,0.0,WeatherDisplay:10.37,2013-03-06 11:05:00,
2013-03-06 06:10:00,34.4,24.2,29.71,WNW,292,1.0,10.0,66,0.00,,SCT,0.01,0.0,WeatherDisplay:10.37,2013-03-06 11:10:00,
2013-03-06 06:20:00,34.4,24.6,29.71,WNW,300,1.0,6.0,67,0.00,,SCT,0.01,0.0,WeatherDisplay:10.37,2013-03-06 11:20:00,
2013-03-06 06:25:00,34.4,24.6,29.72,WNW,298,2.0,5.0,67,0.00,,SCT,0.01,0.0,WeatherDisplay:10.37,2013-03-06 11:25:00,
2013-03-06 06:30:00,34.3,24.1,29.72,West,269,10.0,21.0,66,0.00,,SCT,0.01,0.0,WeatherDisplay:10.37,2013-03-06 11:30:00,
2013-03-06 06:35:00,34.4,23.8,29.72,West,266,7.0,16.0,65,0.00,,SCT,0.01,0.0,WeatherDisplay:10.37,2013-03-06 11:35:00,
2013-03-06 06:40:00,34.4,23.5,29.72,West,271,10.0,14.0,64,0.00,,SCT,0.01,0.0,WeatherDisplay:10.37,2013-03-06 11:40:00,
2013-03-06 06:45:00,34.4,23.5,29.72,West,275,7.0,18.0,64,0.00,,SCT,0.01,0.0,WeatherDisplay:10.37,2013-03-06 11:45:00,
2013-03-06 06:50:00,34.4,23.1,29.72,West,268,12.0,18.0,63,0.00,,SCT,0.01,0.0,WeatherDisplay:10.37,2013-03-06 11:50:00,
2013-03-06 06:55:00,34.4,22.7,29.73,West,269,6.0,20.0,62,0.00,,SCT,0.01,5.0,WeatherDisplay:10.37,2013-03-06 11:55:00,
2013-03-06 07:00:00,34.4,22.7,29.73,West,266,6.0,15.0,62,0.00,,SCT,0.01,9.0,WeatherDisplay:10.37,2013-03-06 12:00:00,
2013-03-06 07:05:00,34.4,22.7,29.73,West,265,6.0,14.0,62,0.00,,SCT,0.01,14.0,WeatherDisplay:10.37,2013-03-06 12:05:00,
2013-03-06 07:10:00,34.4,22.3,29.73,West,273,7.0,16.0,61,0.00,,SCT,0.01,16.0,WeatherDisplay:10.37,2013-03-06 12:10:00,
2013-03-06 07:15:00,34.4,22.3,29.73,West,276,6.0,17.0,61,0.00,,SCT,0.01,23.0,WeatherDisplay:10.37,2013-03-06 12:15:00,
2013-03-06 07:25:00,34.4,22.3,29.73,West,269,8.0,13.0,61,0.00,,SCT,0.01,37.0,WeatherDisplay:10.37,2013-03-06 12:25:00,
2013-03-06 07:35:00,34.4,21.9,29.74,West,269,8.0,17.0,60,0.00,,SCT,0.01,46.0,WeatherDisplay:10.37,2013-03-06 12:35:00,
2013-03-06 07:40:00,34.4,22.3,29.74,West,276,7.0,15.0,61,0.00,,SCT,0.01,104.0,WeatherDisplay:10.37,2013-03-06 12:40:00,
2013-03-06 07:45:00,34.4,22.3,29.74,West,281,7.0,12.0,61,0.00,,SCT,0.01,79.0,WeatherDisplay:10.37,2013-03-06 12:45:00,
2013-03-06 07:50:00,34.4,22.3,29.74,West,281,9.0,18.0,61,0.00,,SCT,0.01,56.0,WeatherDisplay:10.37,2013-03-06 12:50:00,
2013-03-06 08:00:00,34.5,22.4,29.76,West,279,6.0,13.0,61,0.00,SCT,SCT,0.01,84.0,WeatherDisplay:10.37,2013-03-06 13:00:00,
2013-03-06 08:05:00,34.6,22.5,29.76,West,276,8.0,16.0,61,0.00,CLR,SCT,0.01,76.0,WeatherDisplay:10.37,2013-03-06 13:05:00,
2013-03-06 08:10:00,34.7,22.6,29.76,West,278,10.0,17.0,61,0.00,CLR,SCT,0.01,60.0,WeatherDisplay:10.37,2013-03-06 13:10:00,
2013-03-06 08:15:00,34.9,22.4,29.76,West,277,10.0,20.0,60,0.00,CLR,SCT,0.01,81.0,WeatherDisplay:10.37,2013-03-06 13:15:00,
2013-03-06 08:20:00,35.0,22.5,29.77,West,280,7.0,15.0,60,0.00,CLR,SCT,0.01,200.0,WeatherDisplay:10.37,2013-03-06 13:20:00,
2013-03-06 08:25:00,35.2,23.1,29.77,WNW,283,7.0,16.0,61,0.00,CLR,SCT,0.01,339.0,WeatherDisplay:10.37,2013-03-06 13:25:00,
2013-03-06 08:35:00,35.9,23.4,29.77,WNW,283,8.0,13.0,60,0.00,CLR,SCT,0.01,329.0,WeatherDisplay:10.37,2013-03-06 13:35:00,
2013-03-06 08:40:00,36.4,23.8,29.77,WNW,282,7.0,20.0,60,0.00,CLR,SCT,0.01,352.0,WeatherDisplay:10.37,2013-03-06 13:40:00,
2013-03-06 08:45:00,36.7,23.8,29.78,WNW,284,8.0,15.0,59,0.00,CLR,SCT,0.01,415.0,WeatherDisplay:10.37,2013-03-06 13:45:00,
2013-03-06 08:50:00,37.1,23.7,29.78,WNW,290,8.0,15.0,58,0.00,CLR,SCT,0.01,413.0,WeatherDisplay:10.37,2013-03-06 13:50:00,
2013-03-06 08:55:00,37.4,23.6,29.79,WNW,293,10.0,23.0,57,0.00,CLR,SCT,0.01,503.0,WeatherDisplay:10.37,2013-03-06 13:55:00,
2013-03-06 09:00:00,37.5,23.6,29.79,WNW,295,9.0,21.0,57,0.01,RA,SCT,0.02,132.0,WeatherDisplay:10.37,2013-03-06 14:00:00,
2013-03-06 09:05:00,37.7,24.3,29.79,WNW,295,7.0,17.0,58,0.00,RA,SCT,0.02,455.0,WeatherDisplay:10.37,2013-03-06 14:05:00,
2013-03-06 09:10:00,37.9,23.6,29.79,WNW,299,10.0,22.0,56,0.00,CLR,SCT,0.02,299.0,WeatherDisplay:10.37,2013-03-06 14:10:00,
2013-03-06 09:15:00,37.9,24.0,29.80,WNW,294,10.0,21.0,57,0.00,CLR,SCT,0.02,206.0,WeatherDisplay:10.37,2013-03-06 14:15:00,
2013-03-06 09:25:00,37.3,23.4,29.80,WNW,292,9.0,16.0,57,0.00,FEW,SCT,0.02,329.0,WeatherDisplay:10.37,2013-03-06 14:25:00,
2013-03-06 09:30:00,37.5,23.6,29.81,WNW,291,10.0,20.0,57,0.00,CLR,SCT,0.02,563.0,WeatherDisplay:10.37,2013-03-06 14:30:00,
2013-03-06 09:35:00,37.7,24.3,29.81,WNW,297,13.0,25.0,58,0.00,CLR,SCT,0.02,543.0,WeatherDisplay:10.37,2013-03-06 14:35:00,
2013-03-06 09:40:00,38.2,24.7,29.81,WNW,291,12.0,20.0,58,0.00,CLR,SCT,0.02,603.0,WeatherDisplay:10.37,2013-03-06 14:40:00,
2013-03-06 09:45:00,38.7,25.6,29.81,WNW,286,6.0,16.0,59,0.00,CLR,SCT,0.02,605.0,WeatherDisplay:10.37,2013-03-06 14:45:00,
2013-03-06 09:50:00,39.3,25.3,29.81,West,276,8.0,16.0,57,0.00,CLR,SCT,0.02,606.0,WeatherDisplay:10.37,2013-03-06 14:50:00,
2013-03-06 10:00:00,39.7,24.8,29.81,West,278,9.0,16.0,55,0.00,CLR,SCT,0.02,541.0,WeatherDisplay:10.37,2013-03-06 15:00:00,
2013-03-06 10:05:00,39.8,24.5,29.81,WNW,284,9.0,17.0,54,0.00,CLR,SCT,0.02,473.0,WeatherDisplay:10.37,2013-03-06 15:05:00,
2013-03-06 10:10:00,39.8,24.5,29.81,WNW,283,13.0,22.0,54,0.00,CLR,SCT,0.02,652.0,WeatherDisplay:10.37,2013-03-06 15:10:00,
2013-03-06 10:15:00,40.0,25.1,29.81,West,277,14.0,22.0,55,0.00,CLR,SCT,0.02,656.0,WeatherDisplay:10.37,2013-03-06 15:15:00,
2013-03-06 10:20:00,40.2,24.9,29.82,West,281,8.0,20.0,54,0.00,CLR,SCT,0.02,671.0,WeatherDisplay:10.37,2013-03-06 15:20:00,
2013-03-06 10:25:00,40.5,25.1,29.81,West,276,13.0,20.0,54,0.00,CLR,SCT,0.02,677.0,WeatherDisplay:10.37,2013-03-06 15:25:00,
2013-03-06 10:30:00,40.8,25.4,29.81,West,280,7.0,17.0,54,0.00,CLR,SCT,0.02,664.0,WeatherDisplay:10.37,2013-03-06 15:30:00,
2013-03-06 10:35:00,41.1,26.1,29.81,WNW,282,10.0,17.0,55,0.00,CLR,SCT,0.02,693.0,WeatherDisplay:10.37,2013-03-06 15:35:00,
2013-03-06 10:40:00,41.4,26.0,29.82,West,272,10.0,17.0,54,0.00,CLR,SCT,0.02,710.0,WeatherDisplay:10.37,2013-03-06 15:40:00,
2013-03-06 10:45:00,41.5,26.1,29.82,WNW,287,7.0,15.0,54,0.00,CLR,SCT,0.02,761.0,WeatherDisplay:10.37,2013-03-06 15:45:00,
2013-03-06 10:50:00,41.9,26.4,29.82,WNW,290,13.0,22.0,54,0.00,CLR,SCT,0.02,745.0,WeatherDisplay:10.37,2013-03-06 15:50:00,
2013-03-06 10:55:00,41.9,26.0,29.82,West,276,14.0,23.0,53,0.00,CLR,SCT,0.02,752.0,WeatherDisplay:10.37,2013-03-06 15:55:00,
2013-03-06 11:00:00,42.0,25.6,29.82,West,278,9.0,20.0,52,0.00,CLR,SCT,0.02,758.0,WeatherDisplay:10.37,2013-03-06 16:00:00,
2013-03-06 11:05:00,42.2,26.3,29.82,West,275,9.0,22.0,53,0.00,CLR,SCT,0.02,775.0,WeatherDisplay:10.37,2013-03-06 16:05:00,
2013-03-06 11:10:00,42.3,26.4,29.83,West,271,10.0,18.0,53,0.00,CLR,SCT,0.02,844.0,WeatherDisplay:10.37,2013-03-06 16:10:00,
2013-03-06 11:15:00,42.6,26.6,29.83,WNW,284,10.0,17.0,53,0.00,CLR,SCT,0.02,849.0,WeatherDisplay:10.37,2013-03-06 16:15:00,
2013-03-06 11:20:00,42.4,26.9,29.83,West,275,9.0,20.0,54,0.00,CLR,SCT,0.02,849.0,WeatherDisplay:10.37,2013-03-06 16:20:00,
2013-03-06 11:25:00,42.6,26.7,29.83,West,274,7.0,15.0,53,0.00,CLR,SCT,0.02,817.0,WeatherDisplay:10.37,2013-03-06 16:25:00,
2013-03-06 11:30:00,42.9,26.0,29.83,WNW,294,10.0,17.0,51,0.00,CLR,SCT,0.02,754.0,WeatherDisplay:10.37,2013-03-06 16:30:00,
2013-03-06 11:35:00,43.3,26.8,29.83,WNW,284,13.0,18.0,52,0.00,CLR,SCT,0.02,798.0,WeatherDisplay:10.37,2013-03-06 16:35:00,
2013-03-06 11:40:00,43.4,27.4,29.83,West,278,12.0,21.0,53,0.00,CLR,SCT,0.02,816.0,WeatherDisplay:10.37,2013-03-06 16:40:00,
2013-03-06 11:45:00,43.5,27.0,29.83,WNW,284,12.0,20.0,52,0.00,CLR,SCT,0.02,817.0,WeatherDisplay:10.37,2013-03-06 16:45:00,
2013-03-06 11:50:00,43.5,27.5,29.84,West,275,12.0,18.0,53,0.00,CLR,SCT,0.02,823.0,WeatherDisplay:10.37,2013-03-06 16:50:00,
2013-03-06 11:55:00,43.6,27.1,29.84,West,273,13.0,20.0,52,0.00,CLR,SCT,0.02,867.0,WeatherDisplay:10.37,2013-03-06 16:55:00,
2013-03-06 12:00:00,43.6,27.1,29.84,West,269,6.0,22.0,52,0.00,CLR,SCT,0.02,889.0,WeatherDisplay:10.37,2013-03-06 17:00:00,
2013-03-06 12:05:00,43.7,27.2,29.84,West,265,9.0,16.0,52,0.00,CLR,SCT,0.02,311.0,WeatherDisplay:10.37,2013-03-06 17:05:00,
2013-03-06 12:10:00,43.9,27.4,29.84,West,267,9.0,18.0,52,0.00,CLR,SCT,0.02,893.0,WeatherDisplay:10.37,2013-03-06 17:10:00,
2013-03-06 12:15:00,44.0,27.0,29.84,West,271,10.0,20.0,51,0.00,CLR,SCT,0.02,893.0,WeatherDisplay:10.37,2013-03-06 17:15:00,
2013-03-06 12:20:00,44.0,27.0,29.84,West,265,10.0,20.0,51,0.00,CLR,SCT,0.02,330.0,WeatherDisplay:10.37,2013-03-06 17:20:00,
2013-03-06 12:25:00,43.8,27.3,29.84,West,265,10.0,17.0,52,0.00,SCT,SCT,0.02,357.0,WeatherDisplay:10.37,2013-03-06 17:25:00,
2013-03-06 12:30:00,43.7,26.7,29.84,West,267,12.0,20.0,51,0.00,SCT,SCT,0.02,1035.0,WeatherDisplay:10.37,2013-03-06 17:30:00,
2013-03-06 12:35:00,43.6,27.1,29.85,West,270,9.0,15.0,52,0.00,SCT,SCT,0.02,322.0,WeatherDisplay:10.37,2013-03-06 17:35:00,
2013-03-06 12:40:00,43.6,26.7,29.85,West,276,6.0,12.0,51,0.00,SCT,SCT,0.02,916.0,WeatherDisplay:10.37,2013-03-06 17:40:00,
2013-03-06 12:55:00,45.3,28.2,29.84,West,273,6.0,16.0,51,0.00,SCT,SCT,0.02,867.0,WeatherDisplay:10.37,2013-03-06 17:55:00,
2013-03-06 13:00:00,45.9,27.8,29.85,WNW,294,9.0,24.0,49,0.00,CLR,SCT,0.02,870.0,WeatherDisplay:10.37,2013-03-06 18:00:00,
2013-03-06 13:05:00,46.1,27.0,29.85,WNW,302,10.0,20.0,47,0.00,CLR,SCT,0.02,856.0,WeatherDisplay:10.37,2013-03-06 18:05:00,
2013-03-06 13:10:00,46.4,27.8,29.84,WNW,297,9.0,16.0,48,0.00,CLR,SCT,0.02,891.0,WeatherDisplay:10.37,2013-03-06 18:10:00,
2013-03-06 13:15:00,46.6,28.4,29.84,WNW,295,6.0,22.0,49,0.00,CLR,SCT,0.02,954.0,WeatherDisplay:10.37,2013-03-06 18:15:00,
2013-03-06 13:20:00,46.8,27.6,29.84,NW,311,15.0,23.0,47,0.00,CLR,SCT,0.02,190.0,WeatherDisplay:10.37,2013-03-06 18:20:00,
2013-03-06 13:25:00,46.4,28.3,29.84,NW,317,6.0,16.0,49,0.00,SCT,SCT,0.02,199.0,WeatherDisplay:10.37,2013-03-06 18:25:00,
2013-03-06 13:30:00,46.5,29.3,29.84,NW,309,7.0,12.0,51,0.00,SCT,SCT,0.02,809.0,WeatherDisplay:10.37,2013-03-06 18:30:00,
2013-03-06 13:35:00,46.8,28.6,29.84,WNW,300,10.0,18.0,49,0.00,FEW,SCT,0.02,898.0,WeatherDisplay:10.37,2013-03-06 18:35:00,
2013-03-06 13:40:00,47.0,28.3,29.85,WNW,299,12.0,21.0,48,0.00,CLR,SCT,0.02,879.0,WeatherDisplay:10.37,2013-03-06 18:40:00,
2013-03-06 13:50:00,46.9,28.2,29.85,WNW,303,13.0,21.0,48,0.00,CLR,SCT,0.02,991.0,WeatherDisplay:10.37,2013-03-06 18:50:00,
2013-03-06 13:55:00,46.8,27.6,29.85,WNW,287,14.0,21.0,47,0.00,CLR,SCT,0.02,824.0,WeatherDisplay:10.37,2013-03-06 18:55:00,
2013-03-06 14:00:00,46.6,27.4,29.85,WNW,288,14.0,20.0,47,0.00,CLR,SCT,0.02,921.0,WeatherDisplay:10.37,2013-03-06 19:00:00,
2013-03-06 14:05:00,46.3,27.7,29.85,WNW,295,12.0,23.0,48,0.00,CLR,SCT,0.02,907.0,WeatherDisplay:10.37,2013-03-06 19:05:00,
2013-03-06 14:10:00,46.1,28.0,29.86,WNW,302,9.0,22.0,49,0.00,CLR,SCT,0.02,851.0,WeatherDisplay:10.37,2013-03-06 19:10:00,
2013-03-06 14:15:00,46.1,27.5,29.86,WNW,296,10.0,20.0,48,0.00,CLR,SCT,0.02,900.0,WeatherDisplay:10.37,2013-03-06 19:15:00,
2013-03-06 14:20:00,45.9,27.8,29.86,WNW,292,7.0,18.0,49,0.00,CLR,SCT,0.02,761.0,WeatherDisplay:10.37,2013-03-06 19:20:00,
2013-03-06 14:25:00,46.2,28.6,29.86,WNW,296,10.0,20.0,50,0.00,CLR,SCT,0.02,837.0,WeatherDisplay:10.37,2013-03-06 19:25:00,
2013-03-06 14:30:00,46.4,29.2,29.87,WNW,303,8.0,20.0,51,0.00,CLR,SCT,0.02,772.0,WeatherDisplay:10.37,2013-03-06 19:30:00,
2013-03-06 14:35:00,46.5,28.8,29.87,WNW,302,10.0,16.0,50,0.00,CLR,SCT,0.02,798.0,WeatherDisplay:10.37,2013-03-06 19:35:00,
2013-03-06 14:40:00,46.6,28.4,29.87,WNW,298,10.0,17.0,49,0.00,CLR,SCT,0.02,751.0,WeatherDisplay:10.37,2013-03-06 19:40:00,
2013-03-06 14:45:00,46.5,28.8,29.87,WNW,303,8.0,17.0,50,0.00,CLR,SCT,0.02,754.0,WeatherDisplay:10.37,2013-03-06 19:45:00,
2013-03-06 14:50:00,46.4,28.2,29.87,WNW,300,10.0,22.0,49,0.00,CLR,SCT,0.02,691.0,WeatherDisplay:10.37,2013-03-06 19:50:00,
2013-03-06 14:55:00,46.5,29.3,29.87,WNW,303,9.0,16.0,51,0.00,CLR,SCT,0.02,698.0,WeatherDisplay:10.37,2013-03-06 19:55:00,
2013-03-06 15:00:00,46.6,28.9,29.88,NW,304,10.0,17.0,50,0.00,CLR,SCT,0.02,691.0,WeatherDisplay:10.37,2013-03-06 20:00:00,
2013-03-06 15:05:00,46.6,28.9,29.88,NW,314,8.0,17.0,50,0.00,CLR,SCT,0.02,679.0,WeatherDisplay:10.37,2013-03-06 20:05:00,
2013-03-06 15:10:00,46.7,29.6,29.89,NW,321,7.0,15.0,51,0.00,CLR,SCT,0.02,670.0,WeatherDisplay:10.37,2013-03-06 20:10:00,
2013-03-06 15:15:00,46.5,28.3,29.89,NW,315,8.0,23.0,49,0.00,CLR,SCT,0.02,647.0,WeatherDisplay:10.37,2013-03-06 20:15:00,
2013-03-06 15:20:00,46.4,28.3,29.90,NW,312,8.0,15.0,49,0.00,FEW,SCT,0.02,144.0,WeatherDisplay:10.37,2013-03-06 20:20:00,
2013-03-06 15:25:00,46.3,28.2,29.90,NW,308,10.0,20.0,49,0.00,FEW,SCT,0.02,666.0,WeatherDisplay:10.37,2013-03-06 20:25:00,
2013-03-06 15:30:00,46.1,28.5,29.90,WNW,303,8.0,15.0,50,0.00,CLR,SCT,0.02,621.0,WeatherDisplay:10.37,2013-03-06 20:30:00,
2013-03-06 15:35:00,46.0,28.4,29.91,NW,310,10.0,20.0,50,0.00,FEW,SCT,0.02,109.0,WeatherDisplay:10.37,2013-03-06 20:35:00,
2013-03-06 15:40:00,45.9,28.3,29.91,NW,316,8.0,14.0,50,0.00,SCT,SCT,0.02,105.0,WeatherDisplay:10.37,2013-03-06 20:40:00,
2013-03-06 15:45:00,45.2,27.2,29.92,NW,326,8.0,27.0,49,0.00,BKN,SCT,0.02,98.0,WeatherDisplay:10.37,2013-03-06 20:45:00,
2013-03-06 15:50:00,44.6,27.1,29.92,NNW,327,10.0,20.0,50,0.00,OVC,SCT,0.02,88.0,WeatherDisplay:10.37,2013-03-06 20:50:00,
2013-03-06 15:55:00,44.3,27.3,29.92,NW,325,15.0,23.0,51,0.00,BKN,SCT,0.02,350.0,WeatherDisplay:10.37,2013-03-06 20:55:00,
2013-03-06 16:00:00,44.1,27.1,29.93,NW,324,15.0,26.0,51,0.00,SCT,SCT,0.02,253.0,WeatherDisplay:10.37,2013-03-06 21:00:00,
2013-03-06 16:05:00,43.9,26.9,29.93,NW,317,16.0,25.0,51,0.00,SCT,SCT,0.02,496.0,WeatherDisplay:10.37,2013-03-06 21:05:00,
2013-03-06 16:10:00,44.0,27.5,29.94,NW,323,14.0,27.0,52,0.00,FEW,SCT,0.02,478.0,WeatherDisplay:10.37,2013-03-06 21:10:00,
2013-03-06 16:15:00,44.0,27.5,29.94,NW,326,12.0,17.0,52,0.00,FEW,SCT,0.02,459.0,WeatherDisplay:10.37,2013-03-06 21:15:00,
2013-03-06 16:20:00,44.2,27.7,29.95,NW,324,10.0,16.0,52,0.00,FEW,SCT,0.02,441.0,WeatherDisplay:10.37,2013-03-06 21:20:00,
2013-03-06 16:25:00,44.3,27.8,29.95,NW,326,12.0,18.0,52,0.00,FEW,SCT,0.02,422.0,WeatherDisplay:10.37,2013-03-06 21:25:00,
2013-03-06 16:30:00,44.3,27.8,29.96,NNW,334,9.0,17.0,52,0.00,FEW,SCT,0.02,410.0,WeatherDisplay:10.37,2013-03-06 21:30:00,
2013-03-06 16:35:00,44.2,27.7,29.96,NNW,331,9.0,18.0,52,0.00,FEW,SCT,0.02,387.0,WeatherDisplay:10.37,2013-03-06 21:35:00,
2013-03-06 16:40:00,44.1,27.1,29.96,NW,326,12.0,18.0,51,0.00,FEW,SCT,0.02,371.0,WeatherDisplay:10.37,2013-03-06 21:40:00,
2013-03-06 16:45:00,43.9,27.4,29.97,NNW,329,9.0,20.0,52,0.00,FEW,SCT,0.02,357.0,WeatherDisplay:10.37,2013-03-06 21:45:00,
2013-03-06 16:50:00,44.0,28.0,29.97,NNW,328,7.0,15.0,53,0.00,FEW,SCT,0.02,341.0,WeatherDisplay:10.37,2013-03-06 21:50:00,
2013-03-06 16:55:00,44.0,27.5,29.98,NNW,333,10.0,18.0,52,0.00,FEW,SCT,0.02,320.0,WeatherDisplay:10.37,2013-03-06 21:55:00,
2013-03-06 17:00:00,43.8,27.3,29.98,NNW,328,14.0,24.0,52,0.00,FEW,SCT,0.02,306.0,WeatherDisplay:10.37,2013-03-06 22:00:00,
2013-03-06 17:05:00,43.4,26.9,29.99,NNW,335,15.0,23.0,52,0.00,FEW,SCT,0.02,285.0,WeatherDisplay:10.37,2013-03-06 22:05:00,
2013-03-06 17:10:00,42.9,26.5,29.99,NW,325,10.0,24.0,52,0.00,SCT,SCT,0.02,264.0,WeatherDisplay:10.37,2013-03-06 22:10:00,
2013-03-06 17:15:00,42.6,26.6,29.99,NW,318,13.0,28.0,53,0.00,SCT,SCT,0.02,243.0,WeatherDisplay:10.37,2013-03-06 22:15:00,
2013-03-06 17:20:00,42.2,26.8,30.00,NW,314,13.0,24.0,54,0.00,SCT,SCT,0.02,223.0,WeatherDisplay:10.37,2013-03-06 22:20:00,
2013-03-06 17:25:00,42.0,26.5,30.00,NW,319,10.0,24.0,54,0.00,SCT,SCT,0.02,206.0,WeatherDisplay:10.37,2013-03-06 22:25:00,
2013-03-06 17:30:00,41.9,26.9,30.01,NW,326,7.0,20.0,55,0.00,SCT,SCT,0.02,186.0,WeatherDisplay:10.37,2013-03-06 22:30:00,
2013-03-06 17:35:00,41.8,26.8,30.02,NW,312,9.0,17.0,55,0.00,SCT,SCT,0.02,167.0,WeatherDisplay:10.37,2013-03-06 22:35:00,
2013-03-06 17:40:00,41.6,26.6,30.02,NW,305,9.0,20.0,55,0.00,SCT,SCT,0.02,146.0,WeatherDisplay:10.37,2013-03-06 22:40:00,
2013-03-06 17:45:00,41.4,26.9,30.02,NW,313,9.0,14.0,56,0.00,SCT,SCT,0.02,128.0,WeatherDisplay:10.37,2013-03-06 22:45:00,
2013-03-06 17:50:00,41.2,26.7,30.02,NW,321,9.0,16.0,56,0.00,BKN,SCT,0.02,114.0,WeatherDisplay:10.37,2013-03-06 22:50:00,
2013-03-06 17:55:00,41.1,27.0,30.03,NW,317,8.0,15.0,57,0.00,BKN,SCT,0.02,90.0,WeatherDisplay:10.37,2013-03-06 22:55:00,
2013-03-06 18:00:00,40.8,26.7,30.02,NW,320,12.0,21.0,57,0.00,BKN,SCT,0.02,72.0,WeatherDisplay:10.37,2013-03-06 23:00:00,
2013-03-06 18:05:00,40.6,26.5,30.03,NW,322,6.0,13.0,57,0.00,BKN,SCT,0.02,54.0,WeatherDisplay:10.37,2013-03-06 23:05:00,
2013-03-06 18:10:00,40.4,26.8,30.03,NW,323,6.0,13.0,58,0.00,BKN,SCT,0.02,39.0,WeatherDisplay:10.37,2013-03-06 23:10:00,
2013-03-06 18:20:00,39.9,26.7,30.03,NW,317,8.0,15.0,59,0.00,BKN,SCT,0.02,9.0,WeatherDisplay:10.37,2013-03-06 23:20:00,
2013-03-06 18:25:00,39.6,26.4,30.04,NW,317,8.0,22.0,59,0.00,BKN,SCT,0.02,5.0,WeatherDisplay:10.37,2013-03-06 23:25:00,
2013-03-06 18:35:00,39.1,26.4,30.04,NW,310,10.0,21.0,60,0.00,BKN,SCT,0.02,0.0,WeatherDisplay:10.37,2013-03-06 23:35:00,
2013-03-06 18:40:00,38.9,26.2,30.05,NW,316,13.0,21.0,60,0.00,BKN,SCT,0.02,0.0,WeatherDisplay:10.37,2013-03-06 23:40:00,
2013-03-06 18:45:00,38.7,26.4,30.05,NW,314,8.0,16.0,61,0.00,BKN,SCT,0.02,0.0,WeatherDisplay:10.37,2013-03-06 23:45:00,
2013-03-06 18:50:00,38.5,26.2,30.06,NW,314,7.0,14.0,61,0.00,BKN,SCT,0.02,0.0,WeatherDisplay:10.37,2013-03-06 23:50:00,
2013-03-06 18:55:00,38.4,26.1,30.06,NW,315,7.0,12.0,61,0.00,BKN,SCT,0.02,0.0,WeatherDisplay:10.37,2013-03-06 23:55:00,
2013-03-06 19:00:00,38.2,25.9,30.06,NW,314,7.0,15.0,61,0.00,BKN,SCT,0.02,0.0,WeatherDisplay:10.37,2013-03-07 00:00:00,
2013-03-06 19:05:00,38.1,26.2,30.06,NW,322,6.0,16.0,62,0.00,BKN,SCT,0.02,0.0,WeatherDisplay:10.37,2013-03-07 00:05:00,
2013-03-06 19:10:00,38.0,26.1,30.07,NW,326,8.0,18.0,62,0.00,BKN,SCT,0.02,0.0,WeatherDisplay:10.37,2013-03-07 00:10:00,
2013-03-06 19:15:00,37.9,26.0,30.06,NW,322,12.0,20.0,62,0.00,BKN,SCT,0.02,0.0,WeatherDisplay:10.37,2013-03-07 00:15:00,
2013-03-06 19:20:00,37.8,26.0,30.06,NW,322,8.0,17.0,62,0.00,BKN,SCT,0.02,0.0,WeatherDisplay:10.37,2013-03-07 00:20:00,
2013-03-06 19:25:00,37.7,25.8,30.06,NW,321,8.0,15.0,62,0.00,BKN,SCT,0.02,0.0,WeatherDisplay:10.37,2013-03-07 00:25:00,
2013-03-06 19:30:00,37.7,25.8,30.07,NW,316,6.0,14.0,62,0.00,BKN,SCT,0.02,0.0,WeatherDisplay:10.37,2013-03-07 00:30:00,
2013-03-06 19:35:00,37.6,26.1,30.07,NW,317,7.0,13.0,63,0.00,BKN,SCT,0.02,0.0,WeatherDisplay:10.37,2013-03-07 00:35:00,
2013-03-06 19:40:00,37.5,26.0,30.07,NW,314,2.0,12.0,63,0.00,BKN,SCT,0.02,0.0,WeatherDisplay:10.37,2013-03-07 00:40:00,
2013-03-06 19:45:00,37.4,25.9,30.07,NW,310,7.0,13.0,63,0.00,BKN,SCT,0.02,0.0,WeatherDisplay:10.37,2013-03-07 00:45:00,
2013-03-06 19:50:00,37.3,25.8,30.07,NW,306,2.0,9.0,63,0.00,BKN,SCT,0.02,0.0,WeatherDisplay:10.37,2013-03-07 00:50:00,
2013-03-06 19:55:00,37.2,25.8,30.07,NW,314,3.0,8.0,63,0.00,BKN,SCT,0.02,0.0,WeatherDisplay:10.37,2013-03-07 00:55:00,
2013-03-06 20:00:00,37.1,26.0,30.07,NW,315,3.0,10.0,64,0.00,BKN,SCT,0.02,0.0,WeatherDisplay:10.37,2013-03-07 01:00:00,
2013-03-06 20:05:00,37.0,25.9,30.07,NW,306,2.0,6.0,64,0.00,BKN,SCT,0.02,0.0,WeatherDisplay:10.37,2013-03-07 01:05:00,
2013-03-06 20:15:00,36.8,25.8,30.07,NW,309,2.0,7.0,64,0.00,BKN,SCT,0.02,0.0,WeatherDisplay:10.37,2013-03-07 01:15:00,
2013-03-06 20:25:00,36.6,25.9,30.07,NW,317,5.0,10.0,65,0.00,BKN,SCT,0.02,0.0,WeatherDisplay:10.37,2013-03-07 01:25:00,
2013-03-06 20:30:00,36.5,25.8,30.07,NW,322,5.0,12.0,65,0.00,BKN,SCT,0.02,0.0,WeatherDisplay:10.37,2013-03-07 01:30:00,
2013-03-06 20:35:00,36.4,25.8,30.07,NW,320,2.0,8.0,65,0.00,BKN,SCT,0.02,0.0,WeatherDisplay:10.37,2013-03-07 01:35:00,
2013-03-06 20:40:00,36.4,25.7,30.07,NW,318,1.0,8.0,65,0.00,BKN,SCT,0.02,0.0,WeatherDisplay:10.37,2013-03-07 01:40:00,
2013-03-06 20:45:00,36.3,25.7,30.07,NW,317,1.0,4.0,65,0.00,BKN,SCT,0.02,0.0,WeatherDisplay:10.37,2013-03-07 01:45:00,
2013-03-06 20:50:00,36.2,25.6,30.07,NW,317,1.0,8.0,65,0.00,BKN,SCT,0.02,0.0,WeatherDisplay:10.37,2013-03-07 01:50:00,
2013-03-06 20:55:00,36.1,25.8,30.07,NW,315,1.0,5.0,66,0.00,BKN,SCT,0.02,0.0,WeatherDisplay:10.37,2013-03-07 01:55:00,
2013-03-06 21:00:00,35.9,25.6,30.07,NW,313,2.0,7.0,66,0.00,BKN,SCT,0.02,0.0,WeatherDisplay:10.37,2013-03-07 02:00:00,
2013-03-06 21:05:00,35.8,25.5,30.07,NW,312,2.0,6.0,66,0.00,BKN,SCT,0.02,0.0,WeatherDisplay:10.37,2013-03-07 02:05:00,
2013-03-06 21:10:00,35.8,25.5,30.07,NW,312,1.0,3.0,66,0.00,BKN,SCT,0.02,0.0,WeatherDisplay:10.37,2013-03-07 02:10:00,
2013-03-06 21:15:00,35.7,25.4,30.08,NW,312,1.0,4.0,66,0.00,BKN,SCT,0.02,0.0,WeatherDisplay:10.37,2013-03-07 02:15:00,
2013-03-06 21:20:00,35.6,25.4,30.08,NW,312,1.0,2.0,66,0.00,BKN,SCT,0.02,0.0,WeatherDisplay:10.37,2013-03-07 02:20:00,
2013-03-06 21:25:00,35.5,25.3,30.08,NW,312,2.0,5.0,66,0.00,BKN,SCT,0.02,0.0,WeatherDisplay:10.37,2013-03-07 02:25:00,
2013-03-06 21:30:00,35.4,25.5,30.08,NW,310,0.0,6.0,67,0.00,BKN,SCT,0.02,0.0,WeatherDisplay:10.37,2013-03-07 02:30:00,
2013-03-06 21:35:00,35.3,25.4,30.08,NW,308,0.0,6.0,67,0.00,BKN,SCT,0.02,0.0,WeatherDisplay:10.37,2013-03-07 02:35:00,
2013-03-06 21:40:00,35.2,25.3,30.09,NW,308,0.0,4.0,67,0.00,BKN,SCT,0.02,0.0,WeatherDisplay:10.37,2013-03-07 02:40:00,
2013-03-06 21:45:00,35.2,25.3,30.09,NW,313,2.0,6.0,67,0.00,BKN,SCT,0.02,0.0,WeatherDisplay:10.37,2013-03-07 02:45:00,
2013-03-06 21:50:00,35.1,25.2,30.09,NW,318,0.0,1.0,67,0.00,BKN,SCT,0.02,0.0,WeatherDisplay:10.37,2013-03-07 02:50:00,
2013-03-06 21:55:00,35.0,25.1,30.10,NW,318,0.0,1.0,67,0.00,BKN,SCT,0.02,0.0,WeatherDisplay:10.37,2013-03-07 02:55:00,
2013-03-06 22:00:00,34.8,25.0,30.10,NW,318,0.0,0.0,67,0.00,BKN,SCT,0.02,0.0,WeatherDisplay:10.37,2013-03-07 03:00:00,
2013-03-06 22:05:00,34.4,25.0,30.10,NW,318,0.0,0.0,68,0.00,BKN,SCT,0.02,0.0,WeatherDisplay:10.37,2013-03-07 03:05:00,
2013-03-06 22:10:00,34.4,24.9,30.10,NW,318,0.0,0.0,68,0.00,BKN,SCT,0.02,0.0,WeatherDisplay:10.37,2013-03-07 03:10:00,
2013-03-06 22:15:00,34.1,24.6,30.11,NW,318,0.0,1.0,68,0.00,BKN,SCT,0.02,0.0,WeatherDisplay:10.37,2013-03-07 03:15:00,
2013-03-06 22:20:00,33.8,24.7,30.11,NW,318,0.0,1.0,69,0.00,BKN,SCT,0.02,0.0,WeatherDisplay:10.37,2013-03-07 03:20:00,
2013-03-06 22:25:00,33.5,24.7,30.11,NW,318,0.0,1.0,70,0.00,BKN,SCT,0.02,0.0,WeatherDisplay:10.37,2013-03-07 03:25:00,
2013-03-06 22:30:00,33.2,24.5,30.12,NW,318,0.0,0.0,70,0.00,BKN,SCT,0.02,0.0,WeatherDisplay:10.37,2013-03-07 03:30:00,
2013-03-06 22:35:00,32.8,24.4,30.12,NW,318,0.0,0.0,71,0.00,BKN,SCT,0.02,0.0,WeatherDisplay:10.37,2013-03-07 03:35:00,
2013-03-06 22:40:00,32.6,24.2,30.12,NW,318,0.0,1.0,71,0.00,BKN,SCT,0.02,0.0,WeatherDisplay:10.37,2013-03-07 03:40:00,
2013-03-06 22:45:00,32.3,24.3,30.12,NW,318,0.0,0.0,72,0.00,BKN,SCT,0.02,0.0,WeatherDisplay:10.37,2013-03-07 03:45:00,
2013-03-06 22:50:00,32.0,24.0,30.12,NW,318,0.0,0.0,72,0.00,BKN,SCT,0.02,0.0,WeatherDisplay:10.37,2013-03-07 03:50:00,
2013-03-06 23:00:00,31.6,24.3,30.13,NW,318,0.0,1.0,74,0.00,BKN,SCT,0.02,0.0,WeatherDisplay:10.37,2013-03-07 04:00:00,
2013-03-06 23:10:00,31.7,24.6,30.12,NW,318,1.0,2.0,75,0.00,BKN,SCT,0.02,0.0,WeatherDisplay:10.37,2013-03-07 04:10:00,
2013-03-06 23:20:00,32.0,24.6,30.12,NW,318,1.0,3.0,74,0.00,BKN,SCT,0.02,0.0,WeatherDisplay:10.37,2013-03-07 04:20:00,
2013-03-06 23:35:00,32.4,25.0,30.12,NW,318,2.0,4.0,74,0.00,BKN,SCT,0.02,0.0,WeatherDisplay:10.37,2013-03-07 04:35:00,
2013-03-06 23:40:00,32.5,25.1,30.12,NW,318,2.0,5.0,74,0.00,BKN,SCT,0.02,0.0,WeatherDisplay:10.37,2013-03-07 04:40:00,
2013-03-06 23:45:00,32.7,25.3,30.12,NW,318,2.0,3.0,74,0.00,BKN,SCT,0.02,0.0,WeatherDisplay:10.37,2013-03-07 04:45:00,
2013-03-06 23:50:00,32.7,25.3,30.12,NW,318,3.0,6.0,74,0.00,BKN,SCT,0.02,0.0,WeatherDisplay:10.37,2013-03-07 04:50:00,